Fredericksburg, TX

9:57 PM CST on December 07, 2019 (GMT -0600)
Fredericksburg

Weather History for KT82 - November, 2019

Change the Weather History Date:

Wednesday, November 13, 2019

  Actual Average (KSAT) Record (KSAT)
Temperature  
Mean Temperature 33 °F -  
Max Temperature 40 °F 72 °F 91 °F (1951)
Min Temperature 26 °F 49 °F 28 °F (2018)
Degree Days  
Heating Degree Days 32    
Moisture  
Dew Point 25 °F    
Average Humidity 70    
Maximum Humidity 88    
Minimum Humidity 47    
Precipitation  
Precipitation 0.00 in - - ()
Sea Level Pressure  
Sea Level Pressure 30.20 in    
Wind  
Wind Speed 3 mph ()    
Max Wind Speed 14 mph    
Max Gust Speed -    
Visibility 10.0 miles    
Events Rain    
Averages and records for this station are not official NWS values.
T = Trace of Precipitation, MM = Missing Value Source: Averaged Metar Reports

Daily Weather History Graph

Daily Weather History Graph

Search for Another Location

Airport or City:

Astronomy

Nov. 13, 2019 Rise Set
Actual Time 6:59 AM CST 5:40 PM CST
Civil Twilight 6:34 AM CST 6:05 PM CST
Nautical Twilight 6:05 AM CST 6:34 PM CST
Astronomical Twilight 5:36 AM CST 7:02 PM CST
Moon 6:46 PM CST (11/13) 7:53 AM CST (11/13)
Length of Visible Light 11h 31m
Length of Day
10h 40m
Full, 99% of the Moon is Illuminated
Nov 13
Full
Nov 19
Last Quarter
Nov 26
New
Dec 4
First Quarter
Dec 11
Full

Hourly Weather History & Observations

Time (CST) Temp. Windchill Dew Point Humidity Pressure Visibility Wind Dir Wind Speed Gust Speed Precip Events Conditions
12:15 AM 26.6 °F - 23.4 °F 88% 30.35 in 10.0 mi Calm Calm - N/A   Clear
12:35 AM 27.0 °F - 23.5 °F 87% 30.36 in 10.0 mi Calm Calm - N/A   Clear
12:55 AM 27.0 °F - 23.0 °F 85% 30.35 in 10.0 mi Calm Calm - N/A   Clear
1:15 AM 27.1 °F - 23.5 °F 86% 30.36 in 10.0 mi Calm Calm - N/A   Clear
1:35 AM 27.3 °F - 23.0 °F 84% 30.36 in 10.0 mi Calm Calm - N/A   Clear
1:55 AM 27.7 °F - 23.0 °F 83% 30.36 in 10.0 mi Calm Calm - N/A   Clear
2:15 AM 27.9 °F - 22.6 °F 81% 30.35 in 10.0 mi Calm Calm - N/A   Clear
2:35 AM 28.4 °F - 23.5 °F 82% 30.35 in 10.0 mi Calm Calm - N/A   Clear
2:55 AM 28.2 °F - 23.7 °F 83% 30.34 in 10.0 mi Calm Calm - N/A   Clear
3:15 AM 28.4 °F - 23.5 °F 82% 30.33 in 10.0 mi Calm Calm - N/A   Clear
3:35 AM 28.9 °F - 23.7 °F 81% 30.32 in 10.0 mi Calm Calm - N/A   Clear
3:55 AM 29.1 °F - 23.4 °F 79% 30.31 in 10.0 mi Calm Calm - N/A   Clear
4:15 AM 28.9 °F - 24.3 °F 83% 30.30 in 10.0 mi Calm Calm - N/A   Clear
4:35 AM 29.3 °F - 24.4 °F 82% 30.29 in 10.0 mi Calm Calm - N/A   Clear
4:55 AM 29.5 °F - 23.7 °F 79% 30.28 in 10.0 mi Calm Calm - N/A   Clear
5:15 AM 29.8 °F - 23.2 °F 76% 30.28 in 10.0 mi Calm Calm - N/A   Clear
5:35 AM 30.0 °F - 23.2 °F 76% 30.26 in 10.0 mi Calm Calm - N/A   Clear
5:55 AM 30.2 °F - 21.9 °F 71% 30.26 in 10.0 mi Calm Calm - N/A   Scattered Clouds
6:35 AM 30.7 °F 27.3 °F 23.7 °F 75% 30.26 in 10.0 mi SW 3.5 mph - N/A   Overcast
6:55 AM 30.7 °F - 23.4 °F 74% 30.26 in 10.0 mi Calm Calm - N/A   Mostly Cloudy
7:15 AM 31.3 °F 27.9 °F 19.2 °F 61% 30.26 in 10.0 mi SSW 3.5 mph - N/A   Overcast
7:35 AM 31.6 °F 28.3 °F 18.0 °F 57% 30.26 in 10.0 mi South 3.5 mph - N/A   Overcast
7:55 AM 32.0 °F 26.4 °F 17.4 °F 55% 30.26 in 10.0 mi South 5.8 mph - N/A   Overcast
8:15 AM 32.0 °F 25.6 °F 17.1 °F 54% 30.26 in 10.0 mi South 6.9 mph - N/A   Overcast
8:35 AM 32.2 °F 25.8 °F 16.3 °F 52% 30.26 in 10.0 mi South 6.9 mph - N/A   Overcast
8:55 AM 33.4 °F 26.6 °F 18.1 °F 54% 30.26 in 10.0 mi SSW 8.1 mph - N/A   Overcast
9:15 AM 33.8 °F 26.4 °F 18.5 °F 54% 30.26 in 10.0 mi SSW 9.2 mph - N/A   Overcast
9:35 AM 34.7 °F 26.4 °F 18.9 °F 52% 30.26 in 10.0 mi SSW 11.5 mph - N/A   Overcast
9:55 AM 35.6 °F 29.2 °F 19.2 °F 51% 30.26 in 10.0 mi SSW 8.1 mph - N/A   Overcast
10:15 AM 36.5 °F 29.7 °F 20.3 °F 52% 30.25 in 10.0 mi SSW 9.2 mph - N/A   Overcast
10:35 AM 36.9 °F 28.2 °F 19.2 °F 49% 30.24 in 10.0 mi SSW 13.8 mph - N/A   Overcast
10:55 AM 36.7 °F 28.9 °F 18.1 °F 47% 30.24 in 10.0 mi SSW 11.5 mph - N/A   Overcast
11:15 AM 36.1 °F 29.3 °F 18.7 °F 49% 30.24 in 10.0 mi SSW 9.2 mph - N/A   Overcast
11:35 AM 35.2 °F 28.1 °F 22.5 °F 60% 30.23 in 10.0 mi SSW 9.2 mph - N/A   Drizzle
11:55 AM 35.6 °F 29.9 °F 22.5 °F 59% 30.21 in 10.0 mi SSW 6.9 mph - N/A   Light Drizzle
12:15 PM 35.8 °F 28.8 °F 23.7 °F 62% 30.20 in 10.0 mi SSW 9.2 mph - N/A   Light Drizzle
12:35 PM 36.0 °F 30.3 °F 24.4 °F 63% 30.18 in 10.0 mi SSW 6.9 mph - N/A   Light Drizzle
12:55 PM 36.9 °F 30.7 °F 25.0 °F 62% 30.16 in 10.0 mi SW 8.1 mph - N/A   Light Drizzle
1:15 PM 37.0 °F 31.6 °F 25.5 °F 63% 30.15 in 10.0 mi South 6.9 mph - N/A   Drizzle
1:35 PM 35.8 °F 29.4 °F 28.6 °F 75% 30.14 in 10.0 mi South 8.1 mph - N/A Rain Rain
1:55 PM 35.8 °F 30.1 °F 30.0 °F 80% 30.12 in 10.0 mi South 6.9 mph - N/A Rain Light Rain
2:15 PM 36.5 °F 31.8 °F 31.1 °F 81% 30.11 in 10.0 mi SSW 5.8 mph - N/A   Drizzle
2:35 PM 37.6 °F 32.3 °F 32.2 °F 81% 30.10 in 10.0 mi SSW 6.9 mph - N/A Rain Rain
2:55 PM 37.8 °F 33.3 °F 31.8 °F 79% 30.09 in 10.0 mi SSW 5.8 mph - N/A   Light Drizzle
3:55 PM 38.3 °F 34.8 °F 32.0 °F 78% 30.07 in 10.0 mi SSW 4.6 mph - N/A   Overcast
4:15 PM 38.7 °F 32.4 °F 31.3 °F 75% 30.08 in 10.0 mi SSW 9.2 mph - N/A   Overcast
4:35 PM 39.2 °F 34.2 °F 31.5 °F 74% 30.07 in 10.0 mi SSW 6.9 mph - N/A   Overcast
4:55 PM 39.4 °F 35.2 °F 30.9 °F 72% 30.07 in 10.0 mi SSW 5.8 mph - N/A   Overcast
5:15 PM 39.7 °F 35.6 °F 31.1 °F 71% 30.06 in 10.0 mi South 5.8 mph - N/A   Overcast
5:35 PM 40.1 °F 35.3 °F 30.7 °F 69% 30.06 in 10.0 mi South 6.9 mph - N/A   Overcast
5:55 PM 40.1 °F 36.9 °F 31.1 °F 70% 30.06 in 10.0 mi South 4.6 mph - N/A   Overcast
6:35 PM 40.1 °F 35.3 °F 30.2 °F 68% 30.07 in 10.0 mi SSW 6.9 mph - N/A   Overcast
6:55 PM 39.9 °F 33.4 °F 29.5 °F 66% 30.09 in 10.0 mi SSW 10.4 mph - N/A   Overcast
7:15 PM 39.4 °F 33.2 °F 29.3 °F 67% 30.10 in 10.0 mi SSW 9.2 mph - N/A   Mostly Cloudy
7:35 PM 39.2 °F 35.9 °F 30.0 °F 70% 30.09 in 10.0 mi SW 4.6 mph - N/A   Mostly Cloudy
7:55 PM 39.0 °F 33.4 °F 29.8 °F 70% 30.10 in 10.0 mi SW 8.1 mph - N/A   Mostly Cloudy
8:15 PM 38.7 °F 33.6 °F 29.8 °F 71% 30.10 in 10.0 mi SW 6.9 mph - N/A   Mostly Cloudy
8:35 PM 38.5 °F 33.4 °F 30.2 °F 72% 30.10 in 10.0 mi SW 6.9 mph - N/A   Mostly Cloudy
8:55 PM 38.7 °F 35.2 °F 30.2 °F 72% 30.10 in 10.0 mi SW 4.6 mph - N/A   Overcast
9:15 PM 38.8 °F 35.4 °F 30.4 °F 72% 30.10 in 10.0 mi SSW 4.6 mph - N/A   Overcast
9:35 PM 38.8 °F 35.4 °F 30.0 °F 71% 30.11 in 10.0 mi SSW 4.6 mph - N/A   Overcast
9:55 PM 38.8 °F 36.5 °F 30.0 °F 71% 30.11 in 10.0 mi SW 3.5 mph - N/A   Overcast
10:15 PM 39.2 °F 35.9 °F 30.6 °F 71% 30.11 in 10.0 mi South 4.6 mph - N/A   Overcast
10:35 PM 38.8 °F 35.4 °F 30.7 °F 73% 30.11 in 10.0 mi SSE 4.6 mph - N/A   Overcast
11:15 PM 39.2 °F 35.0 °F 30.7 °F 72% 30.11 in 10.0 mi South 5.8 mph - N/A   Overcast
11:35 PM 39.2 °F 35.9 °F 31.1 °F 73% 30.11 in 10.0 mi South 4.6 mph - N/A   Overcast
11:55 PM 39.6 °F - 31.6 °F 73% 30.10 in 10.0 mi Calm Calm - N/A   Overcast